Weather in Sedlistoye

Russia / Astrakhan Oblast     45°49′03″N   47°39′53″E
temp.,
°C
wind,
m/s
gust,
m/s
humid.,
%
clouds,
%
prec.,
mm/h
press.,
hPa
HPBL,
m
27 july, tue
tue2701:00+26ene41031100 0.0 1017430
04:00+26e71041100 0.1 1017786
07:00+26e71042100 0.0 1017932
10:00+27ene7933100 0.0 10171257
13:00+28ene71025100 0.0 10171631
16:00+25e6935100 0.0 1016842
19:00+24nne2439100 0.0 1017134
22:00+22ene3542100 0.0 1018172
28 july, wed
wed2801:00+22nw3544100 0.0 1017134
04:00+22nw5844100 0.0 1016213
07:00+23nnw5749100 0.0 1017239
10:00+29nw4229100 0.0 10161662
13:00+31nw332480 0.0 10152937
16:00+32wsw252322 0.0 10143177
19:00+32w242468 0.0 10131323
22:00+27sw47344 0.0 1014154
29 july, thu
thu2901:00+24w611440 0.0 1014211
04:00+21w48540 0.0 1014132
07:00+24nw34490 0.0 1014135
10:00+32n23220 0.0 10142225
13:00+34s13185 0.0 10133377
16:00+33sse75255 0.0 10121352
19:00+29s67365 0.0 1013552
22:00+25s46530 0.0 1013103
30 july, fri
fri3001:00+24s33590 0.0 101344
04:00+23s23610 0.0 101319
07:00+26s23540 0.0 1014129
10:00+31s44280 0.0 10141292
13:00+33sse55260 0.0 10131714
16:00+33sse55210 0.0 10121624
19:00+30se44280 0.0 1012389
22:00+25se34540 0.0 101250
31 july, sat
sat3101:00+25se33580 0.0 101134
04:00+24se33600 0.0 101117
07:00+26ene24530 0.0 101198
10:00+34e45190 0.0 10111505
13:00+37ese75150 0.0 10102264
16:00+37ese76150 0.0 10091886
19:00+32ese68280 0.0 1009477
22:00+26se48690 0.0 1010143